This is the latest recevied weather packets stored in our database for station/object VK1KCM-5. If no packets are shown the sender has not sent any weather packets the latest 10 day(s).
| Time | Temp. | Humidity | Pressure | Rain* | Wind** | Luminosity | Snow |
|---|---|---|---|---|---|---|---|
| 1788054151 | 18.33° C | 48% | 1027.3 hPa | 0 mm | - | - | - |
| 1788053871 | 17.22° C | 51% | 1027.6 hPa | 0 mm | - | - | - |
| 1788053618 | 17.22° C | 51% | 1027.5 hPa | 0 mm | - | - | - |
| 1788053358 | 17.22° C | 50% | 1027.7 hPa | 0 mm | - | - | - |
| 1788053103 | 16.67° C | 51% | 1027.7 hPa | 0 mm | - | - | - |
| 1788052848 | 16.67° C | 51% | 1027.7 hPa | 0 mm | - | - | - |
| 1788052603 | 16.67° C | 51% | 1027.9 hPa | 0 mm | - | - | - |
| 1788052313 | 16.11° C | 53% | 1028 hPa | 0 mm | - | - | - |
| 1788052048 | 16.11° C | 53% | 1028.4 hPa | 0 mm | - | - | - |
| 1788051763 | 16.11° C | 52% | 1028.3 hPa | 0 mm | - | - | - |
| 1788051523 | 15° C | 53% | 1028.7 hPa | 0 mm | - | - | - |
| 1788051246 | 15° C | 54% | 1028.5 hPa | 0 mm | - | - | - |
| 1788050958 | 15° C | 56% | 1028.7 hPa | 0 mm | - | - | - |
| 1788050683 | 15° C | 55% | 1028.9 hPa | 0 mm | - | - | - |
| 1788050438 | 15° C | 55% | 1028.9 hPa | 0 mm | - | - | - |
| 1788050138 | 14.44° C | 57% | 1029.1 hPa | 0 mm | - | - | - |
| 1788049876 | 14.44° C | 57% | 1029.1 hPa | 0 mm | - | - | - |
| 1788049608 | 13.89° C | 59% | 1029.1 hPa | 0 mm | - | - | - |
| 1788049368 | 13.89° C | 58% | 1029.1 hPa | 0 mm | - | - | - |
| 1788049068 | 13.89° C | 60% | 1029.5 hPa | 0 mm | - | - | - |
| 1788048778 | 13.33° C | 59% | 1029.4 hPa | 0 mm | - | - | - |
| 1788048478 | 13.33° C | 59% | 1029.3 hPa | 0 mm | - | - | - |
| 1788048238 | 13.33° C | 59% | 1029.2 hPa | 0 mm | - | - | - |
| 1788047963 | 12.78° C | 60% | 1029.5 hPa | 0 mm | - | - | - |
| 1788047688 | 11.67° C | 62% | 1030 hPa | 0 mm | - | - | - |
* Rain latest hour (hover to see other rain measurements)
** Current wind speed in m/s (hover to see current wind gust speed)